{"data":{"norad_id":67199,"epoch":"2026-09-20T13:44:31.894368Z","epoch_age_seconds":72396,"freshness":"FRESH","line1":"1 67199U 25304H   26263.57259137  .00003307  00000+0  28471-3 0  9991","line2":"2 67199  70.0011  43.1877 0003158 257.5063 102.5743 14.98341989 43069","mean_motion":14.98341989,"eccentricity":0.0003158,"inclination_deg":70.0011,"raan_deg":43.1877,"arg_perigee_deg":257.5063,"mean_anomaly_deg":102.5743,"bstar":0.00028471,"rev_number":4306,"period_min":96.106230124477,"perigee_km":569.82395699135,"apogee_km":574.21367540486,"semimajor_km":6950.1558161981,"source":"CELESTRAK","updated_at":"2026-09-21T09:00:36.136526Z"}}